Weather in Unawatuna

Sri Lanka     6°02′20″N   80°12′57″E
В апреле 2022 года жителям России запретили посещать сайт meteo.paraplan.net по решению Генеральной прокуратуры. Аудитория сайта уменьшилась в 10 раз. Владельцы сайта не видят смысла в поддержке погодного сервера в таких условиях. Сайт будет закрыт в октябре.
temp.,
°C
wind,
m/s
gust,
m/s
humid.,
%
clouds,
%
prec.,
mm/h
press.,
hPa
HPBL,
m
6 october, thu
thu623:30+26w5986100 3.1 1010634
02:30+25w61087100 2.2 1008683
05:30+26w71086100 3.9 1008736
08:30+26w71084100 1.5 1010850
11:30+27w7108399 3.0 1009907
14:30+27w7981100 2.5 1007854
17:30+26wnw6985100 4.2 1008748
20:30+26wnw5887100 1.2 1010599
7 october, fri
fri723:30+25wnw5986100 2.4 1010574
02:30+25w6986100 2.9 1007591
05:30+25w588797 5.3 1008578
08:30+26w588498 2.9 1011728
11:30+27w7108367 4.8 1009877
14:30+27w8118299 1.8 1006944
17:30+26w71086100 3.8 1008762
20:30+26wnw61086100 1.6 1010762
8 october, sat
sat823:30+26w61087100 2.8 1009812
02:30+26wnw7118684 0.7 1008868
05:30+26wnw6108662 0.9 1008844
08:30+27wnw6982100 0.3 10101008
11:30+27wnw7975100 0.6 10091045
14:30+27wnw71079100 0.6 1007979
17:30+26wnw6983100 1.7 1008770
20:30+26wnw59855 0.7 1010713
9 october, sun
sun923:30+26wnw69845 1.0 1010693
02:30+26wnw58855 0.6 1008657
05:30+26wnw698523 1.4 1009614
08:30+27wnw68815 1.1 1011798
11:30+28wnw687593 1.9 1010999
14:30+27wnw687643 0.2 1008895
17:30+26wnw68836 0.5 1008735
20:30+26w58855 0.3 1011647
10 october, mon
mon1023:30+26w578516 0.9 1011568
02:30+25w47885 1.0 1009471
05:30+25w578721 2.0 1010503
08:30+27w578262 0.6 1011707
11:30+28w577792 0.9 1010835
14:30+27w567710 0.4 1008828
17:30+26w57825 0.8 1009642
20:30+26w46859 0.8 1011499